sat.trackr.live / text

‹ back to catalog

UNKNOWN

NORAD 89183

UNKNOWN UNKNOWN UNKNOWN

§ Identity

Operator
Country
Launch date
Launch site
Launch vehicle
Mass (kg)
RCS (m²)

External: N2YO · Heavens-Above

§ Orbital elements

Epoch: 2026-05-21T13:53:30.596640Z

Period
104.21 min
Inclination
99.2159°
Eccentricity
0.0131529
Mean motion
13.81780293 rev/d
Perigee alt
861.1 km
Apogee alt
1,054.1 km
Semi-major
7,335.7 km
B*
3.8231e-4
RAAN
54.0109°
Arg perigee
90.9024°
Mean anomaly
270.7202°
Rev number
62,904

§ Raw data

UNKNOWN1 89183U          26141.57882635  .00000395  00000+0  38231-3 0  99932 89183  99.2159  54.0109 0131529  90.9024 270.7202 13.81780293629043

JSON: /api/v1/satellites/89183 · /tle

For live sub-satellite position, see the globe view (requires WebGL).

§ Visibility from observer

Set your observer location to see the next 7 days of passes ≥ 10°. The values pass through the URL so the page stays shareable.

No JS? Fill the form by hand. The geolocation button needs JavaScript.